Weather History for Saginaw Browne, MI

Change the Weather History Date:

Friday, November 23, 2012

  Actual Average (KMBS) Record (KMBS)
Temperature  
Mean Temperature 42 °F 36 °F  
Max Temperature 53 °F 42 °F 64 °F (1999)
Min Temperature 32 °F 29 °F 12 °F (2007)
Degree Days  
Heating Degree Days 22    
Month to date heating degree days  
Since 1 July heating degree days  
Cooling Degree Days 0    
Month to date cooling degree days  
Year to date cooling degree days  
Moisture  
Dew Point 31 °F    
Average Humidity 72    
Maximum Humidity 93    
Minimum Humidity 60    
Precipitation  
Precipitation 0.00 in 0.09 in 0.46 in (2003)
Month to date precipitation 2.14  
Year to date precipitation 29.12  
Snow  
Snow 0.00 in - - ()
Month to date snowfall  
Since 1 July snowfall  
Since 1 September snowfall  
Snow Depth -    
Sea Level Pressure  
Sea Level Pressure 29.76 in    
Wind  
Wind Speed 19 mph (WSW)    
Max Wind Speed 30 mph    
Max Gust Speed 39 mph    
Visibility 10 miles    
Events Snow    
T = Trace of Precipitation, MM = Missing Value Source: NWS Daily Summary

Daily Weather History Graph

Daily Weather History Graph

Search for Another Location

Airport:

Trip Planner

Search our weather history database for the weather conditions in past years. The results will help you decide how hot, cold, wet, or windy it might be!

Date:

Astronomy

Nov. 23, 2012 Rise Set
Actual Time 7:39 AM EST 5:04 PM EST
Civil Twilight 7:08 AM EST 5:35 PM EST
Nautical Twilight 6:32 AM EST 6:10 PM EST
Astronomical Twilight 5:58 AM EST 6:44 PM EST
Moon 2:24 PM EST (11/23) 2:50 AM EST (11/23)
Length of Visible Light 10h 27m
Length of Day
9h 24m
Waxing Gibbous, 79% of the Moon is Illuminated
Nov 23
Waxing Gibbous
Nov 28
Full
Dec 6
Last Quarter
Dec 13
New
Dec 20
First Quarter

Hourly Weather History & Observations

Time (EST) Temp. Windchill Dew Point Humidity Pressure Visibility Wind Dir Wind Speed Gust Speed Precip Events Conditions
12:13 AM 53.6 °F - 44.6 °F 72% 29.71 in 10.0 mi SSW 16.1 mph 24.2 mph N/A   Overcast
12:33 AM 53.6 °F - 44.6 °F 72% 29.70 in 10.0 mi SSW 15.0 mph 19.6 mph N/A   Overcast
12:53 AM 51.8 °F - 44.6 °F 76% 29.68 in 10.0 mi SSW 12.7 mph 18.4 mph N/A   Overcast
1:13 AM 53.6 °F - 44.6 °F 72% 29.68 in 10.0 mi SSW 13.8 mph - N/A   Overcast
1:33 AM 53.6 °F - 44.6 °F 72% 29.67 in 10.0 mi SSW 15.0 mph 20.7 mph N/A   Overcast
1:53 AM 53.6 °F - 44.6 °F 72% 29.66 in 10.0 mi SSW 17.3 mph - N/A   Overcast
2:13 AM 53.6 °F - 44.6 °F 72% 29.65 in 10.0 mi SSW 18.4 mph 25.3 mph N/A   Overcast
2:34 AM 53.6 °F - 44.6 °F 72% 29.64 in 10.0 mi SSW 19.6 mph 25.3 mph N/A   Overcast
2:54 AM 53.6 °F - 46.4 °F 77% 29.64 in 10.0 mi SSW 18.4 mph 27.6 mph N/A   Overcast
3:14 AM 53.6 °F - 46.4 °F 77% 29.64 in 10.0 mi SSW 18.4 mph 24.2 mph N/A   Overcast
3:34 AM 53.6 °F - 46.4 °F 77% 29.63 in 10.0 mi SW 19.6 mph 25.3 mph N/A   Overcast
3:54 AM 53.6 °F - 46.4 °F 77% 29.62 in 10.0 mi SSW 17.3 mph 25.3 mph N/A   Overcast
4:14 AM 51.8 °F - 46.4 °F 82% 29.61 in 10.0 mi SW 16.1 mph 23.0 mph N/A   Overcast
4:34 AM 51.8 °F - 46.4 °F 82% 29.61 in 10.0 mi WSW 17.3 mph 25.3 mph N/A   Overcast
4:54 AM 51.8 °F - 42.8 °F 71% 29.62 in 10.0 mi West 24.2 mph 34.5 mph N/A   Overcast
5:14 AM 48.2 °F - 41.0 °F 76% 29.64 in 10.0 mi West 25.3 mph 39.1 mph N/A   Overcast
5:35 AM 44.6 °F 35.7 °F 37.4 °F 76% 29.66 in 10.0 mi West 24.2 mph 38.0 mph N/A   Mostly Cloudy
5:55 AM 44.6 °F 37.2 °F 35.6 °F 71% 29.67 in 10.0 mi West 17.3 mph 32.2 mph N/A   Overcast
6:15 AM 44.6 °F 36.9 °F 35.6 °F 71% 29.67 in 10.0 mi WSW 18.4 mph 29.9 mph N/A   Overcast
6:35 AM 42.8 °F 34.0 °F 32.0 °F 66% 29.68 in 10.0 mi West 20.7 mph 34.5 mph N/A   Mostly Cloudy
6:55 AM 42.8 °F 32.9 °F 32.0 °F 66% 29.68 in 10.0 mi West 26.5 mph 36.8 mph N/A   Mostly Cloudy
7:15 AM 41.0 °F 31.6 °F 32.0 °F 70% 29.69 in 10.0 mi West 20.7 mph 26.5 mph N/A   Overcast
7:35 AM 41.0 °F 32.2 °F 32.0 °F 70% 29.70 in 10.0 mi WSW 18.4 mph 26.5 mph N/A   Overcast
7:55 AM 41.0 °F 29.8 °F 32.0 °F 70% 29.71 in 10.0 mi West 29.9 mph 34.5 mph N/A   Overcast
8:14 AM 39.2 °F 28.7 °F 30.2 °F 70% 29.71 in 10.0 mi West 23.0 mph 26.5 mph N/A   Overcast
8:30 AM 39.2 °F 29.6 °F 30.2 °F 70% 29.72 in 10.0 mi West 19.6 mph 25.3 mph N/A   Overcast
8:50 AM 39.2 °F 32.5 °F 32.0 °F 75% 29.71 in 10.0 mi WSW 10.4 mph - N/A   Overcast
9:11 AM 39.2 °F 28.7 °F 32.0 °F 75% 29.71 in 10.0 mi West 23.0 mph 27.6 mph N/A   Overcast
9:31 AM 37.4 °F 26.9 °F 28.4 °F 70% 29.72 in 10.0 mi West 20.7 mph 29.9 mph N/A   Overcast
9:51 AM 37.4 °F 26.9 °F 28.4 °F 70% 29.71 in 10.0 mi WSW 20.7 mph 27.6 mph N/A   Overcast
10:11 AM 37.4 °F 27.5 °F 30.2 °F 75% 29.71 in 10.0 mi West 18.4 mph 26.5 mph N/A   Overcast
10:31 AM 37.4 °F 28.5 °F 30.2 °F 75% 29.71 in 10.0 mi West 15.0 mph - N/A   Overcast
11:11 AM 37.4 °F 26.9 °F 30.2 °F 75% 29.72 in 10.0 mi West 20.7 mph 28.8 mph N/A   Overcast
11:31 AM 35.6 °F 24.0 °F 28.4 °F 75% 29.72 in 10.0 mi WSW 23.0 mph 29.9 mph N/A   Overcast
11:51 AM 35.6 °F 26.2 °F 28.4 °F 75% 29.73 in 10.0 mi West 15.0 mph 31.1 mph N/A   Overcast
12:11 PM 35.6 °F 24.2 °F 26.6 °F 70% 29.73 in 10.0 mi West 21.9 mph 33.4 mph N/A   Overcast
12:32 PM 35.6 °F 23.4 °F 24.8 °F 65% 29.73 in 10.0 mi West 25.3 mph 34.5 mph N/A   Overcast
12:52 PM 33.8 °F 21.6 °F 24.8 °F 70% 29.74 in 10.0 mi West 23.0 mph 32.2 mph N/A   Overcast
1:12 PM 33.8 °F 22.2 °F 24.8 °F 70% 29.75 in 10.0 mi West 20.7 mph 33.4 mph N/A   Overcast
1:32 PM 33.8 °F 22.8 °F 24.8 °F 70% 29.75 in 10.0 mi WSW 18.4 mph 26.5 mph N/A   Overcast
1:52 PM 33.8 °F 22.2 °F 26.6 °F 75% 29.75 in 10.0 mi West 20.7 mph 31.1 mph N/A Snow Light Snow
2:12 PM 33.8 °F 23.2 °F 26.6 °F 75% 29.75 in 10.0 mi WSW 17.3 mph 27.6 mph N/A Snow Light Snow
2:32 PM 33.8 °F 22.5 °F 28.4 °F 81% 29.75 in 5.0 mi West 19.6 mph 26.5 mph N/A Snow Light Snow
2:52 PM 33.8 °F 23.2 °F 26.6 °F 75% 29.75 in 10.0 mi WSW 17.3 mph 27.6 mph N/A   Overcast
3:12 PM 33.8 °F 22.8 °F 26.6 °F 75% 29.76 in 10.0 mi West 18.4 mph 24.2 mph N/A   Overcast
3:33 PM 33.8 °F 23.2 °F 26.6 °F 75% 29.76 in 10.0 mi West 17.3 mph 28.8 mph N/A   Overcast
3:53 PM 33.8 °F 23.9 °F 26.6 °F 75% 29.78 in 7.0 mi West 15.0 mph 25.3 mph N/A   Overcast
4:13 PM 33.8 °F 23.5 °F 26.6 °F 75% 29.79 in 10.0 mi West 16.1 mph 26.5 mph N/A   Overcast
4:33 PM 32.0 °F 20.8 °F 30.2 °F 93% 29.81 in 1.0 mi West 17.3 mph 21.9 mph N/A Snow Light Snow
4:53 PM 33.8 °F 21.9 °F 28.4 °F 81% 29.82 in 10.0 mi West 21.9 mph 26.5 mph N/A   Overcast
5:13 PM 32.0 °F 20.1 °F 26.6 °F 80% 29.83 in 10.0 mi West 19.6 mph 28.8 mph N/A   Mostly Cloudy
5:33 PM 32.0 °F 19.2 °F 26.6 °F 80% 29.84 in 10.0 mi West 23.0 mph 28.8 mph N/A   Mostly Cloudy
5:53 PM 32.0 °F 19.2 °F 26.6 °F 80% 29.85 in 10.0 mi West 23.0 mph 31.1 mph N/A   Overcast
6:14 PM 32.0 °F 19.8 °F 26.6 °F 80% 29.86 in 10.0 mi West 20.7 mph 28.8 mph N/A   Overcast
6:34 PM 32.0 °F 20.5 °F 26.6 °F 80% 29.87 in 10.0 mi West 18.4 mph 26.5 mph N/A   Overcast
6:54 PM 33.8 °F 22.2 °F 24.8 °F 70% 29.87 in 10.0 mi West 20.7 mph 32.2 mph N/A   Overcast
7:14 PM 33.8 °F 22.8 °F 23.0 °F 65% 29.88 in 10.0 mi West 18.4 mph 27.6 mph N/A   Overcast
7:34 PM 33.8 °F 21.9 °F 21.2 °F 60% 29.89 in 10.0 mi West 21.9 mph 31.1 mph N/A   Overcast
7:54 PM 32.0 °F 19.5 °F 21.2 °F 64% 29.90 in 10.0 mi WNW 21.9 mph 26.5 mph N/A   Mostly Cloudy
8:14 PM 32.0 °F 19.5 °F 21.2 °F 64% 29.91 in 10.0 mi West 21.9 mph 26.5 mph N/A   Mostly Cloudy
8:34 PM 33.8 °F 21.3 °F 21.2 °F 60% 29.92 in 10.0 mi WNW 24.2 mph - N/A   Overcast
8:54 PM 32.0 °F 19.2 °F 21.2 °F 64% 29.93 in 10.0 mi WNW 23.0 mph 29.9 mph N/A   Overcast
9:15 PM 33.8 °F 22.5 °F 21.2 °F 60% 29.93 in 10.0 mi WNW 19.6 mph 25.3 mph N/A   Overcast
9:35 PM 32.0 °F 20.1 °F 21.2 °F 64% 29.93 in 10.0 mi West 19.6 mph 28.8 mph N/A   Overcast
9:55 PM 32.0 °F 20.5 °F 21.2 °F 64% 29.94 in 10.0 mi West 18.4 mph 26.5 mph N/A   Overcast
10:15 PM 32.0 °F 19.5 °F 21.2 °F 64% 29.94 in 10.0 mi WNW 21.9 mph 32.2 mph N/A   Overcast
10:35 PM 32.0 °F 19.8 °F 21.2 °F 64% 29.94 in 10.0 mi West 20.7 mph 28.8 mph N/A   Overcast
10:55 PM 32.0 °F 21.2 °F 21.2 °F 64% 29.95 in 10.0 mi West 16.1 mph 28.8 mph N/A   Overcast
11:15 PM 32.0 °F 21.6 °F 21.2 °F 64% 29.95 in 10.0 mi West 15.0 mph 25.3 mph N/A   Mostly Cloudy
11:35 PM 32.0 °F 21.2 °F 21.2 °F 64% 29.95 in 10.0 mi West 16.1 mph 25.3 mph N/A   Overcast
11:50 PM 32.0 °F 20.5 °F 21.2 °F 64% 29.96 in 10.0 mi West 18.4 mph 23.0 mph N/A   Overcast